When you browse on this site, cookies collect data to enhance your experience and personalize the content and advertising you see.
Visit our Privacy Policy to learn more. By continuing to use the site, you agree to this use of cookies and data.
  • In United Kingdom
  • List of Countries
  • For 7 days
  • Water Temperature
  • Weather Map
  • Weather Widgets
  • user-avatar
    Login

    Hourly Weather Pilis

    Today, 13 December, Friday

    Time Temperature Precipitation Wind Pressure Humidity
    00:00 +3°C° 0.5 mm 2 mps 739 mmHg 96%
    01:00 +2°C° 0 mm 3 mps 738 mmHg 96%
    02:00 +2°C° 0.8 mm 3 mps 738 mmHg 95%
    03:00 +2°C° 0.8 mm 3 mps 737 mmHg 95%
    04:00 +2°C° 0.8 mm 3 mps 736 mmHg 94%
    05:00 +2°C° 0.1 mm 3 mps 736 mmHg 92%
    06:00 +2°C° 0.1 mm 3 mps 735 mmHg 91%
    07:00 +2°C° 0.1 mm 3 mps 735 mmHg 89%
    08:00 +1°C° 0 mm 4 mps 735 mmHg 87%
    09:00 +1°C° 0 mm 4 mps 734 mmHg 85%
    10:00 +1°C° 0 mm 5 mps 734 mmHg 83%
    11:00 +2°C° 0 mm 5 mps 733 mmHg 80%
    12:00 +3°C° 0 mm 5 mps 733 mmHg 77%
    13:00 +5°C° 0 mm 5 mps 733 mmHg 74%
    14:00 +5°C° 0 mm 5 mps 732 mmHg 76%
    15:00 +5°C° 0 mm 4 mps 731 mmHg 78%
    16:00 +5°C° 0 mm 3 mps 731 mmHg 80%
    17:00 +5°C° 0 mm 3 mps 731 mmHg 81%
    18:00 +6°C° 0 mm 2 mps 731 mmHg 82%
    19:00 +6°C° 0 mm 2 mps 732 mmHg 83%
    20:00 +4°C° 0 mm 3 mps 732 mmHg 85%
    21:00 +4°C° 0 mm 3 mps 732 mmHg 87%
    22:00 +4°C° 0 mm 3 mps 732 mmHg 89%
    23:00 +4°C° 0 mm 3 mps 732 mmHg 89%

    Tomorrow, 14 December, Saturday

    Time Temperature Precipitation Wind Pressure Humidity
    00:00 +3°C° 0 mm 3 mps 733 mmHg 90%
    01:00 +3°C° 0 mm 3 mps 733 mmHg 90%
    02:00 +3°C° 0 mm 3 mps 733 mmHg 90%
    03:00 +3°C° 0 mm 3 mps 734 mmHg 91%
    04:00 +2°C° 0 mm 3 mps 734 mmHg 91%
    05:00 +3°C° 0 mm 3 mps 734 mmHg 90%
    06:00 +4°C° 0 mm 2 mps 735 mmHg 89%
    07:00 +4°C° 0 mm 2 mps 736 mmHg 89%
    08:00 +4°C° 0.1 mm 2 mps 737 mmHg 88%
    09:00 +4°C° 0.1 mm 3 mps 738 mmHg 88%
    10:00 +4°C° 0.1 mm 3 mps 738 mmHg 87%
    11:00 +6°C° 0 mm 2 mps 739 mmHg 84%
    12:00 +6°C° 0 mm 2 mps 739 mmHg 80%
    13:00 +8°C° 0 mm 1 mps 740 mmHg 76%
    14:00 +7°C° 0 mm 1 mps 740 mmHg 78%
    15:00 +6°C° 0 mm 2 mps 741 mmHg 80%
    16:00 +5°C° 0 mm 2 mps 742 mmHg 82%
    17:00 +5°C° 0 mm 2 mps 743 mmHg 82%
    18:00 +4°C° 0 mm 3 mps 744 mmHg 83%
    19:00 +3°C° 0 mm 4 mps 744 mmHg 83%
    20:00 +3°C° 0 mm 4 mps 745 mmHg 84%
    21:00 +3°C° 0 mm 4 mps 746 mmHg 85%
    22:00 +3°C° 0 mm 4 mps 747 mmHg 86%
    23:00 +3°C° 0 mm 4 mps 747 mmHg 87%

    Day after tomorrow, 15 December, Sunday

    Time Temperature Precipitation Wind Pressure Humidity
    00:00 +3°C° 0 mm 4 mps 748 mmHg 87%
    01:00 +3°C° 0 mm 4 mps 748 mmHg 87%
    02:00 +3°C° 0 mm 3 mps 748 mmHg 88%
    03:00 +2°C° 0 mm 3 mps 748 mmHg 89%
    04:00 +3°C° 0 mm 2 mps 748 mmHg 89%
    05:00 +3°C° 0 mm 2 mps 748 mmHg 90%
    06:00 +3°C° 0 mm 2 mps 749 mmHg 91%
    07:00 +2°C° 0 mm 2 mps 749 mmHg 91%
    08:00 +2°C° 0 mm 3 mps 749 mmHg 88%
    09:00 +3°C° 0 mm 3 mps 749 mmHg 86%
    10:00 +4°C° 0 mm 3 mps 750 mmHg 83%
    11:00 +5°C° 0 mm 3 mps 750 mmHg 78%
    12:00 +7°C° 0 mm 3 mps 750 mmHg 74%
    13:00 +9°C° 0 mm 3 mps 750 mmHg 70%
    14:00 +8°C° 0 mm 3 mps 750 mmHg 73%
    15:00 +7°C° 0 mm 3 mps 750 mmHg 77%
    16:00 +5°C° 0 mm 3 mps 750 mmHg 80%
    17:00 +6°C° 0 mm 2 mps 750 mmHg 80%
    18:00 +6°C° 0 mm 2 mps 750 mmHg 80%
    19:00 +6°C° 0 mm 2 mps 751 mmHg 79%
    20:00 +5°C° 0 mm 2 mps 751 mmHg 81%
    21:00 +6°C° 0 mm 1 mps 751 mmHg 84%
    22:00 +5°C° 0 mm 1 mps 752 mmHg 86%
    23:00 +5°C° 0 mm 1 mps 752 mmHg 87%

    16 December, Monday

    Time Temperature Precipitation Wind Pressure Humidity
    00:00 +5°C° 0 mm 1 mps 752 mmHg 89%
    01:00 +4°C° 0 mm 1 mps 752 mmHg 91%
    02:00 +4°C° 0 mm 1 mps 752 mmHg 90%
    03:00 +4°C° 0 mm 1 mps 752 mmHg 90%
    04:00 +4°C° 0 mm 1 mps 753 mmHg 89%
    05:00 +5°C° 0 mm 1 mps 753 mmHg 89%
    06:00 +5°C° 0 mm 1 mps 753 mmHg 89%
    07:00 +5°C° 0 mm 1 mps 753 mmHg 89%
    08:00 +5°C° 0 mm 2 mps 753 mmHg 86%
    09:00 +6°C° 0 mm 2 mps 753 mmHg 82%
    10:00 +5°C° 0 mm 3 mps 754 mmHg 78%
    11:00 +7°C° 0 mm 3 mps 753 mmHg 75%
    12:00 +8°C° 0 mm 3 mps 753 mmHg 72%
    13:00 +8°C° 0 mm 4 mps 752 mmHg 69%
    14:00 +8°C° 0 mm 4 mps 752 mmHg 72%
    15:00 +8°C° 0 mm 3 mps 752 mmHg 76%
    16:00 +7°C° 0 mm 3 mps 752 mmHg 79%
    17:00 +7°C° 0 mm 3 mps 752 mmHg 80%
    18:00 +7°C° 0 mm 3 mps 752 mmHg 80%
    19:00 +5°C° 0 mm 3 mps 752 mmHg 81%
    20:00 +5°C° 0 mm 3 mps 752 mmHg 79%
    21:00 +5°C° 0 mm 3 mps 751 mmHg 78%
    22:00 +5°C° 0 mm 3 mps 751 mmHg 76%
    23:00 +5°C° 0 mm 3 mps 751 mmHg 76%

    17 December, Tuesday

    Time Temperature Precipitation Wind Pressure Humidity
    00:00 +5°C° 0 mm 3 mps 751 mmHg 76%
    01:00 +5°C° 0 mm 3 mps 751 mmHg 76%
    02:00 +5°C° 0 mm 4 mps 751 mmHg 78%
    03:00 +5°C° 0 mm 4 mps 751 mmHg 79%
    04:00 +5°C° 0 mm 4 mps 751 mmHg 81%
    05:00 +5°C° 0 mm 4 mps 751 mmHg 81%
    06:00 +5°C° 0 mm 4 mps 751 mmHg 81%
    07:00 +5°C° 0 mm 5 mps 751 mmHg 81%
    08:00 +7°C° 0 mm 5 mps 751 mmHg 78%
    09:00 +8°C° 0 mm 5 mps 751 mmHg 74%
    10:00 +9°C° 0 mm 6 mps 752 mmHg 71%
    11:00 +10°C° 0 mm 6 mps 751 mmHg 69%
    12:00 +11°C° 0 mm 6 mps 751 mmHg 67%
    13:00 +11°C° 0 mm 6 mps 750 mmHg 64%
    14:00 +12°C° 0 mm 5 mps 750 mmHg 68%
    15:00 +10°C° 0 mm 5 mps 750 mmHg 73%
    16:00 +10°C° 0 mm 4 mps 750 mmHg 77%
    17:00 +8°C° 0 mm 4 mps 750 mmHg 77%
    18:00 +8°C° 0 mm 4 mps 751 mmHg 78%
    19:00 +8°C° 0 mm 4 mps 751 mmHg 79%
    20:00 +8°C° 0 mm 4 mps 751 mmHg 80%
    21:00 +7°C° 0 mm 4 mps 751 mmHg 81%
    22:00 +8°C° 0 mm 3 mps 751 mmHg 82%
    23:00 +8°C° 0 mm 3 mps 751 mmHg 83%

    18 December, Wednesday

    Time Temperature Precipitation Wind Pressure Humidity
    00:00 +8°C° 0 mm 3 mps 751 mmHg 84%
    01:00 +8°C° 0 mm 3 mps 751 mmHg 84%
    02:00 +8°C° 0 mm 3 mps 751 mmHg 84%
    03:00 +7°C° 0 mm 3 mps 751 mmHg 83%
    04:00 +7°C° 0 mm 3 mps 751 mmHg 83%
    05:00 +7°C° 0 mm 3 mps 751 mmHg 83%
    06:00 +7°C° 0 mm 3 mps 751 mmHg 83%
    07:00 +7°C° 0 mm 3 mps 751 mmHg 84%
    08:00 +7°C° 0 mm 3 mps 751 mmHg 81%
    09:00 +8°C° 0 mm 3 mps 752 mmHg 77%
    10:00 +9°C° 0 mm 3 mps 752 mmHg 74%
    11:00 +10°C° 0 mm 3 mps 751 mmHg 72%
    12:00 +10°C° 0 mm 2 mps 751 mmHg 70%
    13:00 +12°C° 0 mm 2 mps 751 mmHg 68%
    14:00 +10°C° 0 mm 2 mps 751 mmHg 71%
    15:00 +9°C° 0 mm 2 mps 750 mmHg 74%
    16:00 +9°C° 0 mm 2 mps 750 mmHg 77%
    17:00 +8°C° 0 mm 2 mps 750 mmHg 78%
    18:00 +9°C° 0 mm 1 mps 750 mmHg 78%
    19:00 +8°C° 0 mm 1 mps 750 mmHg 79%
    20:00 +8°C° 0 mm 1 mps 750 mmHg 80%
    21:00 +8°C° 0 mm 1 mps 750 mmHg 80%
    22:00 +8°C° 0 mm 1 mps 750 mmHg 80%
    23:00 +8°C° 0 mm 1 mps 750 mmHg 80%
    Show more